Location: Stara Lesna
(49.1528°N, 20.2911°E)
Time: 15:30:49
(UTC+02:00)

Sich 1 Rocket - Pass Details

Date: 21 September 2019
Orbit: 617 x 652 km, 82.5° (Epoch: 15 October)

Event Time Altitude Azimuth Distance (km) Brightness Sun altitude
Rises 05:32:52 0° 347° (NNW) 2,919 7.0 -9.0°
Reaches altitude 10° 05:35:07 10° 344° (NNW) 2,012 6.1 -8.6°
Maximum altitude 05:39:30 60° 265° (W) 725 3.6 -7.9°
Drops below altitude 10° 05:43:54 10° 185° (S) 2,017 6.0 -7.2°
Sets 05:46:09 0° 182° (S) 2,926 6.9 -6.9°
